Regional Weather Roundup
Issued by NWS Little Rock, AR

Home | Current Version | Previous Version | Graphics & Text | Print | Product List | Glossary On
Versions: 1 2 3 4 5 6 7 8 9 10 11 12 13 14 15 16 17 18 19 20 21 22 23 24 25 26 27
000
ASUS44 KLZK 301405
RWRLZK

WEATHER ROUNDUP FOR ARKANSAS
NATIONAL WEATHER SERVICE LITTLE ROCK AR
900 AM CDT MON MAY 30 2016

NOTE: "FAIR" INDICATES FEW OR NO CLOUDS BELOW 12,000 FEET WITH NO
SIGNIFICANT WEATHER AND/OR OBSTRUCTIONS TO VISIBILITY.

ARZ001-003-010-029-301500-
NORTHWEST ARKANSAS

CITY           SKY/WX    TMP DP  RH WIND       PRES   REMARKS
FAYETTEVILLE   PTSUNNY   69  66  90 CALM      30.11R
FORT SMITH     CLOUDY    70  65  84 CALM      30.08R
HARRISON       MOSUNNY   71  64  78 CALM      30.11R
BENTONVILLE    PTSUNNY   72  63  73 S3        30.10R
ROGERS           N/A     71  64  78 S3        30.11R
SILOAM SPGS    CLOUDY    70  59  68 SW8       30.12R
HIGHFILL       CLOUDY    69  66  90 SW6       30.11R
SPRINGDALE     MOSUNNY   70  64  83 CALM      30.12R
$$

ARZ004-005-016-301500-
NORTH CENTRAL ARKANSAS

CITY           SKY/WX    TMP DP  RH WIND       PRES   REMARKS
BATESVILLE     SUNNY     77  64  65 CALM      30.09S
FLIPPIN        PTSUNNY  N/A N/A N/A CALM      30.07S
MTN HOME       PTSUNNY   72  67  84 SE5       30.09R
$$

ARZ040-041-301500-
WEST CENTRAL ARKANSAS

CITY           SKY/WX    TMP DP  RH WIND       PRES   REMARKS
MENA           CLOUDY    68  66  94 CALM      30.10R
MOUNT IDA      CLOUDY    67  65  93 CALM      30.06S
$$

ARZ009-017-025-026-028-301500-
NORTHEAST ARKANSAS

CITY           SKY/WX    TMP DP  RH WIND       PRES   REMARKS
CORNING          N/A     75  68  78 NE5       30.09S
JONESBORO      SUNNY     80  65  59 CALM      30.08R
NEWPORT        SUNNY     78  70  76 CALM      30.10R
WALNUT RIDGE   SUNNY     75  68  78 NE3       30.08S
BLYTHEVILLE    SUNNY     79  68  69 E3        30.08S
$$

ARZ022-023-033-042-044-301500-
CENTRAL ARKANSAS

CITY           SKY/WX    TMP DP  RH WIND       PRES   REMARKS
LITTLE ROCK    CLOUDY    73  65  75 CALM      30.07F
N LITTLE ROCK    N/A     73  65  76 CALM      30.06S
JACKSONVILLE   DRIZZLE   71  67  87 NE3       30.07S
SEARCY         CLOUDY    78  67  68 CALM      30.09F
HOT SPRINGS    CLOUDY    70  63  78 SE5       30.09R
RUSSELLVILLE   CLOUDY    70  63  78 N3        30.07S
CLINTON        FAIR      72  64  78 CALM      30.09S HAZE
$$

ARZ036-301500-
EAST ARKANSAS

CITY           SKY/WX    TMP DP  RH WIND       PRES   REMARKS
WEST MEMPHIS   SUNNY     78  69  73 CALM      30.07S
$$

ARZ050-053-066-070-073-301500-
SOUTHWEST ARKANSAS

CITY           SKY/WX    TMP DP  RH WIND       PRES   REMARKS
ARKADELPHIA    FAIR      71  66  84 CALM      30.08S
CAMDEN         CLOUDY    75  63  64 E3        30.07F
TEXARKANA      CLOUDY    73  67  81 S3        30.06S
EL DORADO      SUNNY     75  65  70 E6        30.08R
DE QUEEN       CLOUDY    68  66  93 CALM      30.05R
$$

ARZ056-057-069-301500-
SOUTHEAST ARKANSAS

CITY           SKY/WX    TMP DP  RH WIND       PRES   REMARKS
PINE BLUFF     CLOUDY    74  65  73 E5        30.08S
STUTTGART      CLOUDY    73  63  68 E7        30.08S
MONTICELLO     CLOUDY    77  65  66 E3        30.08R

$$






USA.gov is the U.S. government's official web portal to all federal, state and local government web resources and services.